Regional Weather Roundup
Issued by NWS

Home | Current Version | Previous Version | Text Only | Print | Product List | Glossary Off
Versions: 1 2 3 4 5 6 7 8 9 10 11 12 13 14 15 16 17 18 19 20 21 22 23 24 25 26 27 28 29 30 31 32 33 34 35 36 37 38 39 40 41 42 43 44 45 46 47 48 49 50

000
ASUS43 KFSD 200302
RWRSD

WEATHER ROUNDUP FOR SOUTH DAKOTA
NATIONAL WEATHER SERVICE SIOUX FALLS SD
900 PM CST SUN FEB 19 2017

NOTE: "FAIR" INDICATES FEW OR NO CLOUDS BELOW 12,000 FEET WITH NO
SIGNIFICANT WEATHER AND/OR OBSTRUCTIONS TO VISIBILITY.


SDZ001>005-009-010-012>017-200400-
NORTHWEST AND NORTH CENTRAL SOUTH DAKOTA

CITY           SKY/WX    TMP DP  RH WIND       PRES   REMARKS
BUFFALO          N/A     49  36  61 W3        29.45R
FAITH            N/A     54  37  52 S13       29.52R
MOBRIDGE       CLOUDY    45  35  68 SE8       29.50R
$$

SDZ012>016-024>037-041>051-057-063-072>074-200400-
SOUTHWEST AND SOUTH CENTRAL SOUTH DAKOTA

CITY           SKY/WX    TMP DP  RH WIND       PRES   REMARKS
RAPID CTY ARPT CLOUDY    53  34  48 SW6       29.56R
PIERRE         CLOUDY    56  38  50 SE13      29.53S
CUSTER         CLOUDY    47  31  53 SW7       29.64R
ELLSWORTH AFB  CLOUDY    55  34  44 CALM      29.56R
PHILIP         CLOUDY    57  37  47 W9        29.53R
PINE RIDGE     CLOUDY    50  36  58 NW3       29.58R
SPEARFISH      FAIR      54  32  43 SW17      29.56R
WINNER         MOCLDY    63  45  51 SW13      29.59R
$$

SDZ004>011-016>023-039-040-200400-
NORTHEAST SOUTH DAKOTA

CITY           SKY/WX    TMP DP  RH WIND       PRES   REMARKS
ABERDEEN       PTCLDY    52  46  80 S17       29.57S
WATERTOWN      PTCLDY    49  46  90 S17       29.65R
BROOKINGS      CLOUDY    54  47  77 S17       29.69R
SISSETON         N/A     47  46  97 S9        29.63S
$$

SDZ017-020-022-023-036>040-048>070-200400-
SOUTHEAST SOUTH DAKOTA

CITY           SKY/WX    TMP DP  RH WIND       PRES   REMARKS
SIOUX FALLS    CLOUDY    58  49  72 S16G24    29.70S
HURON          CLOUDY    55  50  83 SE10      29.62R
CHAMBERLAIN    CLOUDY    57  46  65 SE6       29.59S
MITCHELL       CLOUDY    57  50  77 S16       29.64R
YANKTON        CLOUDY    59  48  67 S18       29.68R
$$

ABBREVIATIONS USED IN REMARKS
   TC - TEMPERATURE IN CELSIUS
  WCI - WIND CHILL INDEX
   HX - HEAT INDEX
  VSB - VISIBILITY




USA.gov is the U.S. government's official web portal to all federal, state and local government web resources and services.